When you browse on this site, cookies collect data to enhance your experience and personalize the content and advertising you see.
Visit our Privacy Policy to learn more. By continuing to use the site, you agree to this use of cookies and data.
  • In Hungary
  • List of Countries
  • For 7 days
  • Water Temperature
  • Satellite Maps
  • Weather Map
  • News
  • Weather Widgets
  • user-avatar
    Login

    Hourly Weather Novoe Saitovo

    Today, 21 November, Wednesday

    Time Temperature Precipitation Wind Pressure Humidity
    00:00 -6°C° 0 mm 3 mps 743 mmHg 89%
    01:00 -7°C° 0 mm 4 mps 743 mmHg 89%
    02:00 -7°C° 0 mm 4 mps 742 mmHg 89%
    03:00 -7°C° 0 mm 4 mps 741 mmHg 89%
    04:00 -8°C° 0 mm 4 mps 741 mmHg 91%
    05:00 -8°C° 0.1 mm 5 mps 740 mmHg 90%
    06:00 -7°C° 0.1 mm 5 mps 740 mmHg 90%
    07:00 -8°C° 0.1 mm 6 mps 739 mmHg 89%
    08:00 -8°C° 0.4 mm 6 mps 738 mmHg 89%
    09:00 -8°C° 0.4 mm 6 mps 738 mmHg 89%
    10:00 -8°C° 0 mm 6 mps 737 mmHg 89%
    11:00 -8°C° 0.4 mm 6 mps 736 mmHg 89%
    12:00 -8°C° 0.4 mm 6 mps 736 mmHg 88%
    13:00 -8°C° 0.4 mm 6 mps 735 mmHg 88%
    14:00 -6°C° 0.2 mm 6 mps 735 mmHg 88%
    15:00 -6°C° 0.2 mm 6 mps 734 mmHg 89%
    16:00 -6°C° 0.2 mm 5 mps 734 mmHg 89%
    17:00 -6°C° 0.2 mm 6 mps 734 mmHg 89%
    18:00 -6°C° 0.2 mm 6 mps 734 mmHg 89%
    19:00 -6°C° 0.2 mm 7 mps 734 mmHg 89%
    20:00 -6°C° 0.1 mm 6 mps 734 mmHg 86%
    21:00 -8°C° 0.1 mm 6 mps 734 mmHg 84%
    22:00 -9°C° 0.1 mm 6 mps 734 mmHg 82%
    23:00 -10°C° 0 mm 6 mps 734 mmHg 83%

    Tomorrow, 22 November, Thursday

    Time Temperature Precipitation Wind Pressure Humidity
    00:00 -10°C° 0 mm 6 mps 735 mmHg 84%
    01:00 -11°C° 0 mm 5 mps 735 mmHg 85%
    02:00 -11°C° 0 mm 5 mps 735 mmHg 87%
    03:00 -12°C° 0 mm 5 mps 735 mmHg 88%
    04:00 -11°C° 0 mm 4 mps 735 mmHg 90%
    05:00 -12°C° 0 mm 5 mps 735 mmHg 90%
    06:00 -11°C° 0 mm 5 mps 735 mmHg 90%
    07:00 -11°C° 0 mm 5 mps 735 mmHg 90%
    08:00 -11°C° 0 mm 5 mps 735 mmHg 90%
    09:00 -11°C° 0 mm 5 mps 734 mmHg 91%
    10:00 -11°C° 0 mm 5 mps 734 mmHg 91%
    11:00 -10°C° 0 mm 5 mps 734 mmHg 90%
    12:00 -10°C° 0 mm 5 mps 733 mmHg 88%
    13:00 -9°C° 0 mm 6 mps 733 mmHg 86%
    14:00 -9°C° 0.3 mm 6 mps 732 mmHg 87%
    15:00 -9°C° 0.3 mm 7 mps 732 mmHg 88%
    16:00 -9°C° 0.3 mm 7 mps 731 mmHg 89%
    17:00 -9°C° 0.4 mm 7 mps 730 mmHg 89%
    18:00 -10°C° 0.4 mm 8 mps 729 mmHg 89%
    19:00 -8°C° 0.4 mm 8 mps 729 mmHg 89%
    20:00 -9°C° 0.2 mm 7 mps 728 mmHg 89%
    21:00 -9°C° 0.2 mm 7 mps 728 mmHg 89%
    22:00 -9°C° 0.2 mm 7 mps 727 mmHg 89%
    23:00 -9°C° 0.2 mm 6 mps 726 mmHg 90%

    Day after tomorrow, 23 November, Friday

    Time Temperature Precipitation Wind Pressure Humidity
    00:00 -9°C° 0.2 mm 6 mps 726 mmHg 90%
    01:00 -9°C° 0.2 mm 6 mps 725 mmHg 90%
    02:00 -9°C° 0.6 mm 6 mps 725 mmHg 91%
    03:00 -9°C° 0.6 mm 6 mps 724 mmHg 92%
    04:00 -9°C° 0.6 mm 6 mps 724 mmHg 92%
    05:00 -11°C° 0.6 mm 7 mps 724 mmHg 91%
    06:00 -12°C° 0.6 mm 7 mps 724 mmHg 90%
    07:00 -13°C° 0.6 mm 8 mps 724 mmHg 88%
    08:00 -13°C° 0.2 mm 8 mps 725 mmHg 88%
    09:00 -13°C° 0.2 mm 8 mps 725 mmHg 88%
    10:00 -15°C° 0.2 mm 8 mps 726 mmHg 88%
    11:00 -14°C° 0.3 mm 9 mps 727 mmHg 88%
    12:00 -14°C° 0.3 mm 9 mps 728 mmHg 89%
    13:00 -14°C° 0.3 mm 10 mps 728 mmHg 90%
    14:00 -14°C° 0.4 mm 10 mps 729 mmHg 87%
    15:00 -14°C° 0.4 mm 11 mps 730 mmHg 84%
    16:00 -16°C° 0.4 mm 11 mps 731 mmHg 82%
    17:00 -15°C° 0.1 mm 10 mps 733 mmHg 81%
    18:00 -17°C° 0.1 mm 10 mps 734 mmHg 80%
    19:00 -16°C° 0.1 mm 9 mps 735 mmHg 79%
    20:00 -17°C° 0 mm 8 mps 736 mmHg 82%
    21:00 -18°C° 0 mm 7 mps 737 mmHg 85%
    22:00 -17°C° 0 mm 6 mps 738 mmHg 88%
    23:00 -18°C° 0 mm 5 mps 739 mmHg 90%

    24 November, Saturday

    Time Temperature Precipitation Wind Pressure Humidity
    00:00 -18°C° 0 mm 5 mps 740 mmHg 91%
    01:00 -17°C° 0 mm 4 mps 741 mmHg 93%
    02:00 -18°C° 0 mm 4 mps 741 mmHg 93%
    03:00 -18°C° 0 mm 4 mps 741 mmHg 94%
    04:00 -18°C° 0 mm 4 mps 742 mmHg 95%
    05:00 -17°C° 0 mm 4 mps 742 mmHg 95%
    06:00 -16°C° 0 mm 4 mps 742 mmHg 94%
    07:00 -15°C° 0 mm 4 mps 742 mmHg 94%
    08:00 -14°C° 0 mm 5 mps 742 mmHg 93%
    09:00 -14°C° 0 mm 5 mps 742 mmHg 92%
    10:00 -14°C° 0 mm 6 mps 742 mmHg 92%
    11:00 -14°C° 0 mm 6 mps 742 mmHg 91%
    12:00 -13°C° 0 mm 7 mps 742 mmHg 90%
    13:00 -12°C° 0 mm 7 mps 741 mmHg 89%
    14:00 -12°C° 0 mm 7 mps 741 mmHg 88%
    15:00 -12°C° 0 mm 8 mps 741 mmHg 87%
    16:00 -12°C° 0 mm 8 mps 741 mmHg 87%
    17:00 -11°C° 0.1 mm 8 mps 741 mmHg 87%
    18:00 -11°C° 0.1 mm 8 mps 740 mmHg 86%
    19:00 -10°C° 0.1 mm 8 mps 740 mmHg 86%
    20:00 -10°C° 0.1 mm 8 mps 740 mmHg 86%
    21:00 -10°C° 0.1 mm 8 mps 740 mmHg 86%
    22:00 -9°C° 0.1 mm 7 mps 740 mmHg 86%
    23:00 -8°C° 0 mm 7 mps 740 mmHg 87%

    25 November, Sunday

    Time Temperature Precipitation Wind Pressure Humidity
    00:00 -8°C° 0 mm 7 mps 740 mmHg 87%
    01:00 -8°C° 0 mm 7 mps 740 mmHg 87%
    02:00 -8°C° 0 mm 7 mps 740 mmHg 87%
    03:00 -8°C° 0 mm 7 mps 739 mmHg 87%
    04:00 -8°C° 0 mm 7 mps 739 mmHg 87%
    05:00 -8°C° 0.1 mm 7 mps 739 mmHg 88%
    06:00 -8°C° 0.1 mm 7 mps 739 mmHg 88%
    07:00 -8°C° 0.1 mm 8 mps 739 mmHg 88%
    08:00 -7°C° 0.2 mm 8 mps 739 mmHg 88%
    09:00 -7°C° 0.2 mm 8 mps 739 mmHg 88%
    10:00 -7°C° 0.2 mm 8 mps 739 mmHg 88%
    11:00 -7°C° 0.1 mm 7 mps 740 mmHg 87%
    12:00 -7°C° 0.1 mm 7 mps 740 mmHg 86%
    13:00 -7°C° 0.1 mm 7 mps 741 mmHg 85%
    14:00 -6°C° 0 mm 6 mps 741 mmHg 86%
    15:00 -7°C° 0 mm 5 mps 742 mmHg 87%
    16:00 -8°C° 0 mm 4 mps 742 mmHg 88%
    17:00 -9°C° 0 mm 4 mps 743 mmHg 90%
    18:00 -10°C° 0 mm 4 mps 743 mmHg 91%
    19:00 -10°C° 0 mm 3 mps 743 mmHg 93%
    20:00 -10°C° 0 mm 3 mps 744 mmHg 93%
    21:00 -12°C° 0 mm 3 mps 744 mmHg 94%
    22:00 -12°C° 0 mm 3 mps 744 mmHg 94%
    23:00 -12°C° 0 mm 3 mps 744 mmHg 94%

    26 November, Monday

    Time Temperature Precipitation Wind Pressure Humidity
    00:00 -12°C° 0 mm 3 mps 744 mmHg 95%
    01:00 -10°C° 0 mm 2 mps 743 mmHg 95%
    02:00 -10°C° 0 mm 2 mps 743 mmHg 95%
    03:00 -9°C° 0 mm 2 mps 743 mmHg 95%
    04:00 -9°C° 0 mm 2 mps 743 mmHg 96%
    05:00 -9°C° 0.1 mm 3 mps 742 mmHg 96%
    06:00 -8°C° 0.1 mm 3 mps 742 mmHg 96%
    07:00 -8°C° 0.1 mm 3 mps 741 mmHg 96%
    08:00 -8°C° 0.3 mm 4 mps 741 mmHg 95%
    09:00 -8°C° 0.3 mm 4 mps 740 mmHg 94%
    10:00 -8°C° 0.3 mm 5 mps 740 mmHg 93%
    11:00 -7°C° 0.4 mm 5 mps 739 mmHg 93%
    12:00 -6°C° 0.4 mm 5 mps 739 mmHg 93%
    13:00 -6°C° 0.4 mm 5 mps 738 mmHg 93%
    14:00 -5°C° 0.5 mm 5 mps 737 mmHg 92%
    15:00 -5°C° 0.5 mm 5 mps 737 mmHg 92%
    16:00 -4°C° 0.5 mm 5 mps 736 mmHg 92%
    17:00 -4°C° 0.6 mm 6 mps 736 mmHg 92%
    18:00 -4°C° 0.6 mm 6 mps 735 mmHg 92%
    19:00 -4°C° 0.6 mm 6 mps 734 mmHg 92%
    20:00 -4°C° 0.6 mm 6 mps 734 mmHg 92%
    21:00 -4°C° 0.6 mm 6 mps 733 mmHg 92%
    22:00 -4°C° 0.6 mm 6 mps 732 mmHg 93%
    23:00 -4°C° 0.5 mm 5 mps 732 mmHg 93%
    Show more